GW3433 Weather Reports


Display with metric or nautical units.
time (UTC)temp
F
wind
direction
speed
MPH
gust
MPH
rain 1hr
in
rain 24hr
in
rain mn
in
humidity
%
barometer
mb
20260505025015 67 181 5.0 9.0 0.00 0.09 0.00 55
20260505024018 68 181 5.0 8.0 0.00 0.09 0.00 54
20260505023015 66 181 6.0 9.0 0.00 0.09 0.00 59
20260505022015 66 181 5.0 9.0 0.00 0.09 0.00 62
20260505021015 67 181 3.0 6.0 0.00 0.09 0.00 62
20260505020015 68 181 3.0 6.0 0.00 0.09 0.00 60
20260505015016 68 181 4.0 10.0 0.00 0.09 0.00 58
20260505014035 68 181 5.0 8.0 0.00 0.09 0.00 59
20260505013015 68 181 6.0 9.0 0.00 0.09 0.00 57
20260505012015 69 181 4.0 8.0 0.00 0.09 0.00 54
20260505011016 70 181 5.0 8.0 0.00 0.09 0.00 52
20260505010015 70 181 5.0 8.0 0.00 0.09 0.00 52
20260505005015 71 181 3.0 9.0 0.00 0.09 0.00 52
20260505004017 72 181 3.0 6.0 0.00 0.09 0.00 51
20260505003016 74 181 4.0 7.0 0.00 0.09 0.00 43
20260505002015 74 181 6.0 10.0 0.00 0.09 0.00 43
20260505001036 75 181 4.0 9.0 0.00 0.09 0.00 36
20260505000015 75 181 5.0 10.0 0.01 0.09 0.00 39
20260504235016 76 181 5.0 10.0 0.01 0.09 0.09 36
20260504234035 77 181 6.0 11.0 0.03 0.09 0.09 39
20260504233016 77 181 5.0 11.0 0.09 0.09 0.09 33
20260504232036 76 181 9.0 24.0 0.09 0.09 0.09 34
20260504231036 76 181 8.0 15.0 0.09 0.09 0.09 39
20260504230015 77 181 8.0 13.0 0.08 0.08 0.08 34
20260504225015 77 181 9.0 16.0 0.08 0.08 0.08 31
20260504224015 79 181 11.0 31.0 0.06 0.06 0.06 30
20260504223015 83 181 3.0 6.0 0.00 0.00 0.00 22
20260504222015 83 181 5.0 12.0 0.00 0.00 0.00 20
20260504221016 83 181 6.0 9.0 0.00 0.00 0.00 18
20260504220015 84 181 4.0 11.0 0.00 0.00 0.00 17
20260504215016 85 181 7.0 11.0 0.00 0.00 0.00 16
20260504214015 85 181 5.0 11.0 0.00 0.00 0.00 15
20260504213056 85 181 6.0 12.0 0.00 0.00 0.00 15
20260504212015 85 181 8.0 13.0 0.00 0.00 0.00 14
20260504211016 86 181 9.0 23.0 0.00 0.00 0.00 13
20260504210035 85 181 3.0 8.0 0.00 0.00 0.00 13
20260504205015 85 181 5.0 9.0 0.00 0.00 0.00 14
20260504204035 86 181 6.0 12.0 0.00 0.00 0.00 13
20260504203015 85 181 6.0 12.0 0.00 0.00 0.00 14
20260504202017 85 181 7.0 13.0 0.00 0.00 0.00 13
20260504201015 85 181 6.0 11.0 0.00 0.00 0.00 14
20260504200057 84 181 9.0 14.0 0.00 0.00 0.00 15
20260504195015 85 181 6.0 11.0 0.00 0.00 0.00 15
20260504194015 85 181 8.0 17.0 0.00 0.00 0.00 15
20260504193036 84 181 7.0 12.0 0.00 0.00 0.00 16
20260504192015 85 181 6.0 13.0 0.00 0.00 0.00 16
20260504191015 84 181 6.0 12.0 0.00 0.00 0.00 17
20260504190015 84 181 5.0 10.0 0.00 0.00 0.00 18
20260504185015 84 181 7.0 12.0 0.00 0.00 0.00 18
20260504184015 84 181 6.0 12.0 0.00 0.00 0.00 18
20260504183035 84 181 6.0 13.0 0.00 0.00 0.00 18
20260504182015 84 181 5.0 11.0 0.00 0.00 0.00 17
20260504181038 84 181 5.0 13.0 0.00 0.00 0.00 19
20260504180055 83 181 4.0 11.0 0.00 0.00 0.00 19
20260504175035 83 181 7.0 13.0 0.00 0.00 0.00 20
20260504174015 83 181 7.0 13.0 0.00 0.00 0.00 20
20260504173015 82 181 7.0 13.0 0.00 0.00 0.00 22
20260504172036 83 181 8.0 13.0 0.00 0.00 0.00 23
20260504171017 83 181 6.0 12.0 0.00 0.00 0.00 22
20260504151015 70 181 3.0 6.0 0.00 0.00 0.00 38
20260504141016 64 181 6.0 9.0 0.00 0.00 0.00 48
20260504081016 56 181 4.0 6.0 0.00 0.00 0.00 54
20260504045015 62 181 8.0 12.0 0.00 0.00 0.00 40
20260504044015 63 181 7.0 10.0 0.00 0.00 0.00 39
20260504043016 64 181 7.0 11.0 0.00 0.00 0.00 38
20260504042015 64 181 8.0 12.0 0.00 0.00 0.00 38
20260504041015 65 181 8.0 12.0 0.00 0.00 0.00 37
20260504040015 65 181 8.0 11.0 0.00 0.00 0.00 36
20260504035015 66 181 8.0 11.0 0.00 0.00 0.00 35
20260504034016 66 181 7.0 12.0 0.00 0.00 0.00 34
20260504033015 67 181 8.0 11.0 0.00 0.00 0.00 34
20260504032036 67 181 8.0 12.0 0.00 0.00 0.00 33
20260504031015 68 181 7.0 11.0 0.00 0.00 0.00 32
20260504030016 69 181 7.0 11.0 0.00 0.00 0.00 31